STARLINK-6252, 56555

Orbit data source: Space-Track

STARLINK-6252, 56555 is a payload satellite owned by SpaceX/Seattle (US) in LEO that was launched on Sun, 14 May 2023 UTC via an FALCON 9 launch vehicle from the Air Force Eastern Test Range (AFETR). Payload-class satellites include a variety of spacecraft equipped with specific instruments for various scientific and technological missions. These include communications satellites like Starlink; space stations such as the ISS; scientific satellites like the Hubble; Earth observation satellites from companies like Planet Labs, Umbra, and HawkEye 360; GPS; miniature CubeSats for education and research; and military/defense satellites.

Loading next visibility...
Identifier
56555, 2023-065BE
Orbit
LEO
Country
Flag of USUS
Related business
Manufacturer
SpaceX/Seattle
Mission
Operational Commercial Communications
Bus & Motor
STARLINK, Unknown motor
Mass
305 kg wet, ~290 kg dry
Launch date (UTC)
2023-05-14 (3 years ago)
Launch vehicle
FALCON 9
Launch site
Air Force Eastern Test Range (AFETR)
Object type
Payload
Rocket body
Debris
Shape & HBR
Box + 1 Pan, 10.1 m
Radar Cross Section
11.087 m², Large (>1 m²)

Expand to show TLE details & history
Last TLE update: 3 days ago

TLE from 3 days ago
0 STARLINK-6252
1 56555U 23065BE  26170.61276469  .00000276  00000-0  19575-4 0  9995
2 56555  43.0062   7.6631 0002157 277.4513  82.6094 15.27577316172069
Epoch: 2026-06-19T14:42Z
TLE epoch observation values (Epoch: 2026-06-19T14:42:22.869Z)
Latitude
0.00002°
Longitude
-120.7714°
Altitude
482.643 km
Speed
7.626 km/s
True Right ascension
00h 30m 39s
True Declination
0° 00' 00"
Sunlit
Object was in daylight at epoch
Visualization orbit readout
Latitude
Unknown
Longitude
Unknown
Altitude
Unknown
Speed
Unknown
Apparent Right ascension
Unknown
Apparent Declination
Unknown
Sunlit
N/A
Visualization observer readout
Local Sidereal Time
21:30:39
Azimuth
Unknown
Elevation
Unknown
Doppler factor
Unknown
Orbital elements
Apogee altitude
486.482 km
Perigee altitude
483.521 km
Semi-major axis
6,863.138 km
Eccentricity
0.00022
Inclination
43.0062°
RAAN
7.6631°
Arg. of periapsis
277.4513°
True anomaly
82.63391°
Mean anomaly
82.6094°
Eccentric anomaly
82.62166°
Mean motion
3.81732 °/min
Orbital period
94.31 mins
BSTAR
0.000019575
Loading maneuver chart data...
Computing Atmospheric mass density...
Loading historical data...
Loading historical data...
Loading historical data...
Loading historical data...
Loading historical data...
Loading historical data...
Loading historical data...

Documentation

Showing up to 5 results
|